Regional Weather Roundup
Issued by NWS

Home | Current Version | Previous Version | Graphics & Text | Print | Product List | Glossary On
Versions: 1 2 3 4 5 6 7 8 9 10 11 12 13 14 15 16 17 18 19 20 21 22 23 24 25 26 27 28 29 30 31 32 33 34 35 36 37 38 39 40 41 42 43 44 45 46 47 48 49 50
523
ASUS43 KMPX 180010
RWRMN
WEATHER ROUNDUP FOR MINNESOTA
NATIONAL WEATHER SERVICE TWIN CITIES/CHANHASSEN MN
700 PM CDT THU AUG 17 2017


NOTE: "FAIR" INDICATES FEW OR NO CLOUDS BELOW 12,000 FEET WITH NO
SIGNIFICANT WEATHER AND/OR OBSTRUCTIONS TO VISIBILITY. N/A MEANS
CURRENT SKY AND/OR WEATHER CONDITIONS ARE NOT AVAILABLE.

MNZ060>063-068>070-180100-
   Twin Cities Metro

CITY           SKY/WX    TMP DP  RH WIND       PRES   REMARKS
TWIN CITIES    PTSUNNY   72  61  68 NW20G25   29.78R
6HR MIN TEMP:  65; 6HR MAX TEMP:  74;

ST PAUL        CLOUDY    71  62  73 NW18G24   29.78R
CRYSTAL        CLOUDY    71  59  65 NW17G24   29.78R
BLAINE         PTSUNNY   72  64  78 NW13      29.78R
LAKEVILLE      CLOUDY    70  63  78 NW12G17   29.79R
EDEN PRAIRIE   MOSUNNY   73  62  68 NW9       29.78R
6HR MIN TEMP:  69; 6HR MAX TEMP:  75;

SOUTH ST PAUL  CLOUDY    72  62  71 NW13      29.78R
LAKE ELMO      CLOUDY    70  63  78 NW9G17    29.79R
$$
MNZ001>005-007-008-013>017-022>024-027-028-180100-
   Northwest Minnesota

CITY           SKY/WX    TMP DP  RH WIND       PRES   REMARKS
BEMIDJI        SUNNY     71  57  62 NW8       29.84S
HALLOCK        SUNNY     81  55  41 NW7       29.81S
ROSEAU         SUNNY     77  61  57 NW6       29.82S
WARROAD        SUNNY     75  64  69 E3        29.82S
THIEF RVR FALL SUNNY     76  56  49 NW10      29.85R
CROOKSTON      SUNNY     77  57  50 N7        29.84S
FOSSTON        SUNNY     75  57  53 N6        29.85R
DETROIT LAKES  SUNNY     73  59  60 NW7       29.87R
MOORHEAD       SUNNY     75  61  60 N7        29.85S
PARK RAPIDS    SUNNY     73  57  57 N10       29.84R
MAHNOMEN       FAIR      74  58  57 N8        29.85R
$$
MNZ006-009>011-018-025>026-180100-
   North Central Minnesota

CITY           SKY/WX    TMP DP  RH WIND       PRES   REMARKS
BAUDETTE       SUNNY     72  58  61 NW6       29.81S
FLAG ISLAND    SUNNY     75  54  46 N3        29.80S
INTL FALLS     CLOUDY    69  59  70 NW5       29.80F
6HR MIN TEMP:  62; 6HR MAX TEMP:  69;

WASKISH        MOSUNNY   72  57  60 N3        29.82S
BIG FORK       MOSUNNY   66  55  68 N5        29.82R
LONGVILLE      SUNNY     68  57  68 NW6       29.83R
GRAND RAPIDS   CLOUDY    64  59  83 N12       29.84R
CRANE LAKE     CLOUDY    63  59  88 N5        29.80S
ORR            CLOUDY    63  57  82 NW6       29.78R
COOK           CLOUDY    63  59  88 N5        29.80R
WALKER         FAIR      68  57  68 N7        29.84R
$$
MNZ012-019>021-037-180100-
   Northeast Minnesota

CITY           SKY/WX    TMP DP  RH WIND       PRES   REMARKS
DULUTH         DRIZZLE   61  61 100 N16G25    29.75R
6HR MIN TEMP:  61; 6HR MAX TEMP:  62; 6HR PCP:  0.05;

ELY            CLOUDY    61  59  94 NW8       29.76R
HIBBING        CLOUDY    62  58  86 NW13G22   29.80R
EVELETH        CLOUDY    63  58  83 N8G16     29.79S
DULUTH HARBOR  CLOUDY    66  63  88 NW13G21   29.74R
TWO HARBORS    CLOUDY    66  61  82 N7        29.72R
GRAND MARAIS     N/A     65  60  84 CALM      29.65R
G MARAIS ARPRT DRIZZLE   57  54  88 N12G20    29.69R
$$
MNZ029>031-032-039>041-046>048-054>057-064-180100-
   West Central Minnesota

CITY           SKY/WX    TMP DP  RH WIND       PRES   REMARKS
FERGUS FALLS   SUNNY     73  61  64 NW9       29.84S
WHEATON        SUNNY     73  59  60 NW5       29.87S
MORRIS         SUNNY     73  63  68 NW12      29.85R
ALEXANDRIA     SUNNY     73  60  63 NW7       29.86S
ELBOW LAKE     FAIR      73  62  69 W8        29.86S HAZE
WADENA         SUNNY     72  57  60 N6        29.84S
GLENWOOD       SUNNY     73  57  56 NW10      29.86R
APPLETON       SUNNY     75  61  60 N6        29.85S
BENSON         SUNNY     75  61  60 N9        29.86S
ORTONVILLE     SUNNY     73  61  64 MISG      29.86S
MADISON        SUNNY     75  61  60 N5        29.86S
WILLMAR        FAIR      73  63  68 N8        29.85S
$$
MNZ033>034-036-042>043-049>051-058-059-180100-
   Central Minnesota

CITY           SKY/WX    TMP DP  RH WIND       PRES   REMARKS
ST CLOUD       SUNNY     71  61  70 N9        29.81R
6HR MIN TEMP:  68; 6HR MAX TEMP:  72;

SAUK CENTRE    FAIR      73  60  65 NW9       29.84S
PAYNESVILLE    SUNNY     73  61  67 NW9       29.84R
AITKIN         CLOUDY    66  59  77 NW8G16    29.81R
PINE RIVER     SUNNY     66  55  68 N8        29.87R
BRAINERD       SUNNY     69  59  70 NW12      29.82S
STAPLES        SUNNY     72  57  60 N5        29.83S
LONG PRAIRIE   FAIR      72  59  64 W6        29.84S
LITTLE FALLS   SUNNY     70  55  60 NW7       29.83R
LITCHFIELD     SUNNY     75  63  64 NW13G20   29.83R
BUFFALO        SUNNY     71  60  67 NW9       29.81S
MAPLE LAKE     SUNNY     72  63  73 NW9       29.82S
HUTCHINSON     SUNNY     74  63  68 NW9G20    29.83S
$$
MNZ037-044-045-052-053-180100-
   East Central Minnesota

CITY           SKY/WX    TMP DP  RH WIND       PRES   REMARKS
PRINCETON      CLOUDY    72  63  73 NW10G18   29.80R
MORA           CLOUDY    64  59  82 NW10G17   29.81R
RUSH CITY      HVY RAIN  68  61  77 NW10G20   29.78R
MOOSE LAKE     CLOUDY    64  59  82 NW8G16    29.77R
HINCKLEY       CLOUDY    68  61  77 NW10      29.78R
CLOQUET        CLOUDY    63  57  82 NW12G20   29.78R
MCGREGOR       CLOUDY    64  59  82 NW12      29.81R
$$
MNZ071>073-080-081-089-090-097-098-180100-
   Southwest Minnesota

CITY           SKY/WX    TMP DP  RH WIND       PRES   REMARKS
MONTEVIDEO     SUNNY     75  66  73 N5        29.86R
GRANITE FALLS  SUNNY     75  64  68 NW7       29.87S
CANBY          SUNNY     76  57  51 CALM      29.88S
MARSHALL       SUNNY     73  61  65 N7        29.87S
REDWOOD FALLS  SUNNY     74  61  63 NW10      29.85R
OLIVIA         SUNNY     73  64  73 NW6       29.84R
PIPESTONE      SUNNY     75  59  57 NW6       29.90S
WINDOM         SUNNY     73  61  64 NW12      29.87S
WORTHINGTON    SUNNY     75  63  66 NW9       29.89S
JACKSON        SUNNY     72  59  64 NW7       29.88S
TRACY          SUNNY     73  62  68 NW7       29.88S
SLAYTON        SUNNY     74  57  54 NW12G17   29.90R
$$
MNZ065>067-074>077-082>085-091>093-180100-
   South Central Minnesota

CITY           SKY/WX    TMP DP  RH WIND       PRES   REMARKS
MANKATO        PTSUNNY   72  62  71 NW12      29.83R
NEW ULM        PTSUNNY   73  63  68 NW12      29.84R
ST JAMES       SUNNY     73  63  68 W7        29.86S
FAIRMONT       SUNNY     73  63  70 NW8       29.86S
GLENCOE        SUNNY     73  64  73 NW10G16   29.81S
FARIBAULT      PTSUNNY   70  63  78 W10       29.81R
OWATONNA       PTSUNNY   70  66  88 NW7       29.82R
WASECA         CLOUDY    72  63  73 NW8G17    29.84R
ALBERT LEA     CLOUDY    72  64  78 NW8       29.83R
$$
MNZ078>079-086>088-094>096-180100-
   Southeast Minnesota

CITY           SKY/WX    TMP DP  RH WIND       PRES   REMARKS
ROCHESTER      MOSUNNY   70  64  81 NW15G23   29.79R
6HR MIN TEMP:  66; 6HR MAX TEMP:  73; 6HR PCP: TRACE;

RED WING       CLOUDY    72  61  68 NW8       29.75R
STANTON        CLOUDY    71  62  74 NW15      29.78R
DODGE CENTER   LGT RAIN  68  63  83 NW14G25   29.81R
WINONA         PTSUNNY   70  63  78 NW8       29.74S
AUSTIN         CLOUDY    72  63  73 W13G20    29.81R
PRESTON        PTSUNNY   69  62  76 NW12      29.80R
$$
ABBREVIATIONS USED IN REMARKS
   TC - TEMPERATURES IN CELSIUS
  WCI - WIND CHILL INDEX
   HX - HEAT INDEX
  VSB - VISIBILITY
$$




USA.gov is the U.S. government's official web portal to all federal, state and local government web resources and services.